CASE2 Weather Reports


Display with metric or nautical units.
time (UTC)temp
F
wind
direction
speed
MPH
gust
MPH
rain 1hr
in
rain 24hr
in
rain mn
in
humidity
%
barometer
mb
20260502204544 63 251 0.0 3.0 0.00 0.00 0.00 50 1011.9
20260502203107 63 251 0.0 3.0 0.00 0.00 0.00 51 1011.9
20260502201532 64 360 0.0 2.0 0.00 0.00 0.00 51 1012.0
20260502200032 65 251 0.0 5.0 0.00 0.00 0.00 48 1012.1
20260502194531 66 360 1.0 4.0 0.00 0.00 0.00 46 1012.4
20260502193031 66 360 0.0 5.0 0.00 0.00 0.00 46 1012.3
20260502191537 66 360 2.0 8.0 0.00 0.00 0.00 47 1012.2
20260502190030 67 221 0.0 3.0 0.00 0.00 0.00 46 1012.1
20260502184529 68 221 0.0 0.0 0.00 0.00 0.00 45 1011.9
20260502183029 69 221 0.0 3.0 0.00 0.00 0.00 43 1011.9
20260502181516 69 220 0.0 2.0 0.00 0.00 0.00 41 1012.0
20260502163026 74 360 3.0 12.0 0.00 0.00 0.00 32 1012.5
20260502161620 74 360 5.0 15.0 0.00 0.00 0.00 31 1012.6
20260502151551 75 360 4.0 17.0 0.00 0.00 0.00 30 1013.1
20260502123028 76 262 3.0 10.0 0.00 0.00 0.00 34 1014.9
20260502121505 75 360 4.0 11.0 0.00 0.00 0.00 33 1015.1
20260502114501 75 360 6.0 15.0 0.00 0.00 0.00 35 1015.5
20260502113134 74 360 4.0 14.0 0.00 0.00 0.00 37 1015.7
20260502111559 74 360 3.0 16.0 0.00 0.00 0.00 36 1015.7
20260502110057 75 360 6.0 15.0 0.00 0.00 0.00 34 1015.9
20260502104553 74 242 5.0 13.0 0.00 0.00 0.00 37 1016.1
20260502103051 74 360 4.0 12.0 0.00 0.00 0.00 39 1016.3
20260502101548 74 360 4.0 10.0 0.00 0.00 0.00 41 1016.4
20260502091504 71 360 2.0 7.0 0.00 0.00 0.00 45 1016.8
20260502090106 70 360 4.0 10.0 0.00 0.00 0.00 47 1017.0
20260502071519 63 227 1.0 9.0 0.00 0.00 0.00 59 1017.9
20260502070018 62 360 2.0 9.0 0.00 0.00 0.00 60 1018.1
20260502064510 61 360 3.0 8.0 0.00 0.00 0.00 60 1018.2
20260502063008 60 360 3.0 11.0 0.00 0.00 0.00 60 1018.3
20260502061505 59 360 2.0 9.0 0.00 0.00 0.00 61 1018.4
20260502060002 58 214 3.0 10.0 0.00 0.00 0.00 60 1018.4
20260502054603 57 360 2.0 8.0 0.00 0.00 0.00 62 1018.6
20260502053039 56 225 2.0 7.0 0.00 0.00 0.00 64 1018.7
20260502051537 55 360 2.0 6.0 0.00 0.00 0.00 65 1018.9
20260502050019 54 360 1.0 7.0 0.00 0.00 0.00 65 1019.0
20260502044516 54 360 2.0 8.0 0.00 0.00 0.00 66 1019.1
20260502043013 53 360 2.0 7.0 0.00 0.00 0.00 67 1019.2
20260502041510 52 217 1.0 6.0 0.00 0.00 0.00 68 1019.2
20260502040007 51 360 1.0 6.0 0.00 0.00 0.00 68 1019.4
20260502034504 51 213 0.0 5.0 0.00 0.00 0.00 68 1019.5
20260502033001 51 198 1.0 5.0 0.00 0.00 0.00 68 1019.8
20260502031601 51 208 1.0 5.0 0.00 0.00 0.00 67 1019.9
20260502030045 52 225 1.0 7.0 0.00 0.00 0.00 67 1020.0
20260502024538 51 187 2.0 5.0 0.00 0.00 0.00 68 1020.1
20260502023025 51 207 0.0 5.0 0.00 0.00 0.00 69 1020.5
20260502021527 50 219 0.0 4.0 0.00 0.00 0.00 69 1020.6
20260502020022 50 225 0.0 5.0 0.00 0.00 0.00 69 1020.8
20260502014520 50 175 0.0 1.0 0.00 0.00 0.00 69 1020.9
20260502013018 50 175 0.0 1.0 0.00 0.00 0.00 68 1021.1
20260502011518 50 205 0.0 3.0 0.00 0.00 0.00 70 1021.1
20260502010022 49 360 0.0 2.0 0.00 0.00 0.00 72 1021.4
20260502004514 49 202 0.0 1.0 0.00 0.00 0.00 72 1021.5
20260502003002 48 203 0.0 2.0 0.00 0.00 0.00 74 1021.7
20260502001502 47 201 0.0 1.0 0.00 0.00 0.00 77 1021.7
20260502000114 46 208 0.0 1.0 0.00 0.00 0.00 79 1021.8
20260501234602 46 208 0.0 0.0 0.00 0.00 0.00 78 1021.9
20260501233102 47 208 0.0 1.0 0.00 0.00 0.00 78 1021.9
20260501231558 45 208 0.0 1.0 0.00 0.00 0.00 81 1022.1
20260501224554 46 208 0.0 0.0 0.00 0.00 0.00 77 1022.3
20260501223041 48 208 0.0 0.0 0.00 0.00 0.00 74 1022.5
20260501221552 50 208 0.0 0.0 0.00 0.00 0.00 70 1022.4
20260501220042 52 208 0.0 0.0 0.00 0.00 0.00 68 1022.5
20260501214543 52 208 0.0 2.0 0.00 0.00 0.00 67 1022.6
20260501213036 53 205 0.0 3.0 0.00 0.00 0.00 67 1022.8
20260501211535 52 221 0.0 3.0 0.00 0.00 0.00 69 1022.9
20260501210035 51 232 0.0 1.0 0.00 0.00 0.00 72 1023.0